Location: Burland Observatory
(39.4088°N, 105.4217°W)
Time: 15:29:46
(UTC-07:00)

Vanguard 3 - Pass Details

Date: 14 December 2019
Orbit: 508 x 3263 km, 33.3° (Epoch: 19 January)

Event Time Altitude Azimuth Distance (km) Brightness Sun altitude
Rises 13:32:06 0° 275° (W) 5,538 11.7 23.5°
Reaches altitude 10° 13:36:10 10° 263° (W) 4,922 11.7 23.2°
Maximum altitude 13:47:37 27° 214° (SW) 4,482 13.7 22.2°
Drops below altitude 10° 14:02:01 10° 166° (SSE) 6,185 12.4 20.8°
Sets 14:08:10 0° 156° (SSE) 7,185 12.4 20.2°
